Flag for Canada Weather past 2 weeks in Grande Prairie, Alberta, Canada

48 °F

Partly cloudy.

Feels Like: 44 °F
Forecast: 48 / 62 °F
Wind: 9 mph from Southwest

Location: Grande Prairie

Current Time: Oct 10, 2015 at 9:32:21 AM

Latest Report: Oct 10, 2015 at 9:00 AM

Visibility: 25 mi

Pressure: 29.45 "Hg (27.20 "Hg at 657m altitude)

Humidity: 87%

Dew point: 45 °F

Location of Grande PrairieLocation

Historic Weather in Grande Prairie — Graph


Grande Prairie temperature yesterday

Maximum temperature yesterday: 59 °F (at 4:00 PM)
Minimum temperature yesterday: 36 °F (at 8:00 AM)
Average temperature yesterday: 49 °F

Past Weeks' High & Low Weather Summary

High73 °F (Sep 30, 3:00 PM)100% (Sep 28, 2:00 AM)30.63 "Hg (Sep 28, 2:00 AM)
Low25 °F (Sep 28, 7:00 AM)27% (Sep 25, 4:00 PM)29.39 "Hg (Oct 10, 2:00 AM)
Average46 °F71%30.03 "Hg
* Reported Sep 25 8:00 AM — Oct 10 8:00 AM, Grande Prairie, Weather by CustomWeather, © 2015

Note: Actual official high and low records may vary slightly from our data, if they occured in-between our weather recording intervals... More about our weather records


Grande Prairie weather history for previous 24 hours

Time TempWeatherWind HumidityBarometerVisibility
8:00 AM
Sat, Oct 10
50 °FOvercast.15 mph88%29.44 "Hg25 mi
7:55 AM50 °FScattered showers. Mostly cloudy.15 mph88%29.43 "Hg25 mi
7:00 AM52 °FSprinkles. Mostly cloudy.23 mph82%29.46 "Hg20 mi
6:00 AM50 °FPassing clouds.3 mph82%29.43 "Hg25 mi
5:00 AM52 °FPassing clouds.No wind77%29.42 "Hg25 mi
4:00 AM55 °FPassing clouds.16 mph72%29.43 "Hg25 mi
3:00 AM61 °FPartly cloudy.15 mph52%29.41 "Hg25 mi
2:00 AM63 °FPassing clouds.22 mph42%29.39 "Hg25 mi
1:00 AM54 °FPassing clouds.13 mph63%29.40 "Hg25 mi
12:00 AM61 °FPassing clouds.12 mph52%29.39 "Hg25 mi
11:00 PM
Fri, Oct 9
57 °FPassing clouds.12 mph59%29.39 "Hg25 mi
10:00 PM48 °FPassing clouds.8 mph87%29.41 "Hg25 mi
9:00 PM50 °FPassing clouds.7 mph88%29.44 "Hg25 mi
8:00 PM52 °FBroken clouds.6 mph88%29.46 "Hg25 mi
7:00 PM52 °FBroken clouds.6 mph82%29.48 "Hg25 mi
6:00 PM55 °FMore clouds than sun.5 mph77%29.50 "Hg25 mi
5:01 PM59 °FMore clouds than sun.3 mph68%29.51 "Hg25 mi
4:00 PM59 °FMore clouds than sun.3 mph63%29.53 "Hg25 mi
3:00 PM57 °FMostly cloudy.6 mph72%29.54 "Hg25 mi
2:00 PM54 °FScattered showers. Cloudy.5 mph82%29.54 "Hg25 mi
1:00 PM55 °FSprinkles. More clouds than sun.No wind67%29.58 "Hg25 mi
12:00 PM50 °FMostly cloudy.2 mph88%29.59 "Hg25 mi
11:00 AM48 °FMostly cloudy.7 mph87%29.59 "Hg25 mi
10:00 AM45 °FPartly sunny.7 mph93%29.67 "Hg20 mi
9:00 AM39 °FPassing clouds.2 mph100%29.71 "Hg25 mi
Weather by CustomWeather, © 2015

See weather overviewHow to use our weather pages